AO-07 1 07530U 74089B 21294.50694028 -.00000047 00000-0 -73071-5 0 9991 2 07530 101.8719 268.9469 0012317 138.6486 331.8203 12.53650904147522 UO-11 1 14781U 84021B 21294.87806198 .00000203 00000-0 30893-4 0 9993 2 14781 97.6008 288.5446 0009248 34.7427 325.4390 14.83345489 25675 LO-19 1 20442U 90005G 21294.44913913 .00000015 00000-0 22180-4 0 9991 2 20442 98.7575 251.1508 0012276 146.2776 213.9191 14.33001854658877 HUBBLE 1 20580U 90037B 21294.39035668 .00000865 00000-0 41204-4 0 9996 2 20580 28.4708 311.7144 0002586 345.1049 144.2511 15.09789935530040 MET-2/21 1 22782U 93055A 21294.48810623 .00000054 00000-0 35537-4 0 9999 2 22782 82.5524 203.8841 0021317 300.3094 233.7710 13.83841390420951 AO-27 1 22825U 93061C 21294.38301486 .00000011 00000-0 22138-4 0 9991 2 22825 98.9125 315.0590 0008988 34.4681 325.7082 14.30128102463986 IO-26 1 22826U 93061D 21294.32353030 .00000018 00000-0 24690-4 0 9990 2 22826 98.9068 314.8954 0009296 22.0713 338.0867 14.30468786464227 FO-29 1 24278U 96046B 21294.37501666 -.00000020 00000-0 15412-4 0 9990 2 24278 98.5523 345.5883 0350346 183.2023 176.6872 13.53106729243275 NOAA-15 1 25338U 98030A 21294.73082248 .00000053 00000-0 40738-4 0 9997 2 25338 98.6724 322.0684 0009292 273.2562 86.7555 14.26064522219249 GO-32 1 25397U 98043D 21294.55579504 .00000001 00000-0 20026-4 0 9993 2 25397 98.7838 239.8273 0002379 82.3728 277.7720 14.23718725209436 ISS 1 25544U 98067A 21294.89787730 .00004593 00000-0 92230-4 0 9998 2 25544 51.6428 76.1875 0004201 130.6198 339.8105 15.48761900308233 NO-44 1 26931U 01043C 21294.50545556 .00000001 00000-0 32214-4 0 9999 2 26931 67.0509 315.1205 0005642 273.6182 86.4274 14.30638059 47385 SO-50 1 27607U 02058C 21294.41008216 .00000133 00000-0 39534-4 0 9992 2 27607 64.5549 313.1585 0056383 344.9252 15.0168 14.75806739 13091 CO-55 1 27844U 03031E 21294.46793854 .00000088 00000-0 59215-4 0 9998 2 27844 98.6820 300.7777 0010949 75.8351 284.4043 14.22341698949897 CO-57 1 27848U 03031J 21294.28765448 .00000071 00000-0 51799-4 0 9991 2 27848 98.6873 301.1558 0010872 88.5634 271.6789 14.21914557949693 RS-22 1 27939U 03042A 21294.70034984 .00000273 00000-0 57464-4 0 9994 2 27939 98.1591 71.0477 0011807 238.6001 121.4052 14.67042529966037 NOAA-18 1 28654U 05018A 21294.73445199 .00000104 00000-0 80734-4 0 9990 2 28654 98.9809 0.0215 0013271 286.5018 73.4695 14.12648662846363 CO-58 1 28895U 05043F 21294.32533975 .00000271 00000-0 60737-4 0 9996 2 28895 98.0768 64.9431 0017035 169.9418 190.2129 14.63982841852424 Falconsat-3 1 30776U 07006E 21294.40086811 .00007456 00000-0 16918-3 0 9992 2 30776 35.4353 9.9577 0002209 324.5994 35.4587 15.42373581812556 CO-65 1 32785U 08021C 21294.41951670 .00000589 00000-0 68500-4 0 9992 2 32785 97.6265 268.4757 0011759 310.8537 49.1660 14.88848291730910 AAUSAT2 1 32788U 08021F 21294.46160059 .00001622 00000-0 14994-3 0 9999 2 32788 97.5151 283.9135 0010840 198.6882 161.3943 14.95852390732694 DO-64 1 32789U 08021G 21294.51503606 .00003268 00000-0 20658-3 0 9997 2 32789 97.3656 325.0046 0013004 72.3122 287.9526 15.09640479735843 CO-66 1 32791U 08021J 21294.42189139 .00000935 00000-0 98451-4 0 9996 2 32791 97.5849 274.2581 0011534 267.0371 92.9528 14.91588145731557 RS-30 1 32953U 08025A 21294.66680001 .00000021 00000-0 80971-4 0 9994 2 32953 82.5053 332.4437 0020560 64.3607 295.9593 12.43105064608666 PRISM 1 33493U 09002B 21294.45737861 .00001721 00000-0 15122-3 0 9997 2 33493 98.2037 263.1925 0013814 224.9283 135.0821 14.97970182693183 NOAA-19 1 33591U 09005A 21294.70992173 .00000077 00000-0 67090-4 0 9991 2 33591 99.1765 318.5047 0014614 135.7963 224.4378 14.12502306654748 SRMSAT 1 37841U 11058D 21294.34732907 .00000327 00000-0 34562-4 0 9997 2 37841 19.9718 260.1653 0011726 236.2182 279.0527 14.10707942517431 HRBE 1 37855U 11061F 21294.48567976 .00004007 00000-0 19504-3 0 9990 2 37855 101.7228 283.3794 0164907 55.6670 306.0024 15.08386541545171 RS-40 1 38735U 12041C 21294.44164609 .00000021 00000-0 79243-4 0 9998 2 38735 82.4781 54.5241 0017553 168.6053 191.5427 12.42583636418832 ZACUBE-1 1 39417U 13066B 21294.67759571 .00000502 00000-0 68291-4 0 9992 2 39417 97.6072 272.5592 0059957 106.8851 253.8949 14.81631819427761 Delfi-N3xt 1 39428U 13066N 21294.57814887 .00001049 00000-0 17219-3 0 9995 2 39428 97.7903 234.7230 0118729 321.7714 37.5116 14.68189580423470 GOMX-1 1 39430U 13066Q 21294.80237660 .00000456 00000-0 90253-4 0 9993 2 39430 97.8098 210.6020 0151723 77.0086 284.8011 14.59700713421479 LO-74 1 39440U 13066AA 21294.45241898 .00000394 00000-0 61128-4 0 9993 2 39440 97.6926 257.6844 0079393 185.7213 174.3099 14.76354547425016 AO-73 1 39444U 13066AE 21294.44859943 .00000624 00000-0 81584-4 0 9996 2 39444 97.5970 274.7256 0059044 97.4936 263.2991 14.82562496426108 SPROUT 1 39770U 14029E 21294.57985507 .00001889 00000-0 20783-3 0 9995 2 39770 97.9245 45.8332 0009333 146.6634 213.5139 14.88774158402101 DTUSAT-2 1 40030U 14033W 21294.55252137 .00000686 00000-0 78633-4 0 9997 2 40030 97.9187 221.7856 0013036 116.5613 243.6942 14.89126862398082 EO-80 1 40032U 14033Y 21294.51918992 .00000612 00000-0 70888-4 0 9996 2 40032 97.9194 221.7610 0013010 117.5318 242.7223 14.89088085398058 HODOYOSHI-1 1 40299U 14070B 21294.76591663 .00001803 00000-0 74839-4 0 9994 2 40299 97.2753 4.8725 0011004 261.8187 246.9439 15.25059747386665 FIREBIRD FU3 1 40377U 15003B 21294.43806075 .00005508 00000-0 19424-3 0 9992 2 40377 99.1135 102.2997 0115147 110.3086 251.0565 15.23700818371964 FIREBIRD FU4 1 40378U 15003C 21294.40999613 .00005986 00000-0 21028-3 0 9994 2 40378 99.1142 102.4282 0115154 110.1686 251.1976 15.23768134371966 GRIFEX 1 40379U 15003D 21294.46432047 .00005247 00000-0 20720-3 0 9992 2 40379 99.1123 90.6943 0126484 145.2826 215.6741 15.18971774371315 NO-84 1 40654U 15025D 21293.24495975 .00130927 16605-4 51522-3 0 1998 2 40654 54.9699 167.6752 0050311 44.5639 315.9322 15.84670536 26725 XW-2A 1 40903U 15049E 21294.79492890 .00006859 00000-0 13975-3 0 9997 2 40903 97.2212 348.8740 0010153 274.9194 192.1699 15.46511531342313 XW-2C 1 40906U 15049H 21294.75633424 .00001597 00000-0 83833-4 0 9991 2 40906 97.4905 295.5863 0016011 106.6831 356.8753 15.17077985336714 XW-2D 1 40907U 15049J 21294.72441237 .00002055 00000-0 10578-3 0 9993 2 40907 97.4894 295.3952 0015380 103.4379 11.8666 15.17446011336743 LILACSAT-2 1 40908U 15049K 21294.74243515 .00001089 00000-0 62313-4 0 9996 2 40908 97.5098 293.0700 0017052 119.8157 343.7942 15.14638468336346 XW-2E 1 40909U 15049L 21294.79045565 .00003059 00000-0 14443-3 0 9996 2 40909 97.4680 299.6297 0014764 89.6667 357.3179 15.20102850337121 XW-2F 1 40910U 15049M 21294.76940113 .00002883 00000-0 13825-3 0 9995 2 40910 97.4747 298.6980 0015808 90.0077 356.3427 15.19598436336903 XW-2B 1 40911U 15049N 21294.73416197 .00002074 00000-0 10701-3 0 9995 2 40911 97.4887 296.0678 0015333 104.5495 10.0645 15.17358570336630 DCBB 1 40912U 15049P 21294.75065029 .00003419 00000-0 15141-3 0 9999 2 40912 97.4446 303.0640 0015683 63.5260 22.5535 15.22215967337402 TW-1A 1 40928U 15051D 21294.76311654 .00010676 00000-0 20740-3 0 9992 2 40928 97.0688 316.7138 0008770 177.5908 299.1423 15.47757731341219 IO-86 1 40931U 15052B 21291.93850132 .00000895 00000-0 35358-4 0 9996 2 40931 5.9963 91.7123 0013820 353.4989 6.5547 14.76697847327580 ATHENOXAT-1 1 41168U 15077C 21294.68571759 .00004882 00000-0 20813-3 0 9995 2 41168 14.9921 52.5124 0010992 134.3759 79.0187 15.16393107323961 ChubuSat-2 1 41338U 16012B 21294.18793067 .00000653 00000-0 43601-4 0 9990 2 41338 31.0023 106.3096 0013789 299.7083 60.2180 15.00648799311507 ChubuSat-3 1 41339U 16012C 21294.73103676 .00000638 00000-0 42319-4 0 9991 2 41339 31.0108 99.9564 0013682 314.8009 45.1535 15.00787617311585 Horyu-4 1 41340U 16012D 21294.48798915 .00001088 00000-0 74265-4 0 9996 2 41340 31.0046 83.4740 0013844 344.3915 15.6293 15.02089521311759 e-st@r-II 1 41459U 16025D 21294.84969050 .00003285 00000-0 15998-3 0 9999 2 41459 98.1583 78.7881 0157535 356.9291 3.0953 15.08905956301472 AAUSAT4 1 41460U 16025E 21294.67351561 .00005006 00000-0 22877-3 0 9991 2 41460 98.1579 83.1446 0143158 339.1155 20.4200 15.12351734301780 LO-87 1 41557U 16033B 21294.77315814 .00004592 00000-0 15937-3 0 9997 2 41557 97.3934 28.0558 0013618 141.6664 317.4206 15.30206064300849 NuSat2 1 41558U 16033C 21294.79697591 .00004888 00000-0 15879-3 0 9998 2 41558 97.4065 32.5029 0012710 133.6463 325.7901 15.32325966301063 Lapan A3 1 41603U 16040E 21294.78794799 .00000439 00000-0 23341-4 0 9996 2 41603 97.2422 336.8281 0011662 281.9638 189.4426 15.20134719295773 Pratham 1 41783U 16059A 21294.36376538 .00000133 00000-0 34641-4 0 9992 2 41783 97.9499 340.0629 0032953 206.7304 153.2201 14.63177865270663 TY-1 1 41844U 16066D 21294.75640163 .00002511 00000-0 99452-4 0 9992 2 41844 97.3983 303.6961 0015975 55.8812 58.5624 15.26244917275168 CAS-2T 1 41847U 16066G 21294.46688340 .00000288 00000-0 53804-4 0 9992 2 41847 98.5870 354.0328 0364674 204.0080 154.3729 14.38257204259993 EO-88 1 42017U 17008BX 21294.44619030 .00004081 00000-0 14715-3 0 9999 2 42017 97.3033 359.7660 0006474 36.1260 324.0416 15.29078466260507 CAS-4B 1 42759U 17034B 21294.73486652 .00001311 00000-0 91488-4 0 9991 2 42759 43.0168 206.7195 0008684 241.7009 157.8229 15.10464697240249 CAS-4A 1 42761U 17034D 21294.78660992 .00001132 00000-0 80618-4 0 9994 2 42761 43.0174 205.3970 0009272 242.8247 167.4266 15.10549556240252 NIUSat 1 42766U 17036B 21294.20329098 .00002581 00000-0 11144-3 0 9993 2 42766 97.2364 335.7534 0016623 92.7352 267.5788 15.23257413240354 Aalto 1 1 42775U 17036L 21294.38097593 .00002078 00000-0 90701-4 0 9992 2 42775 97.2328 336.1026 0015165 91.4264 268.8711 15.23110718240360 URSA MAIOR 1 42776U 17036M 21294.42567138 .00002253 00000-0 97258-4 0 9994 2 42776 97.2343 336.6877 0014926 90.6444 269.6504 15.23421213240399 Max Valier Sat 1 42778U 17036P 21294.51400603 .00002428 00000-0 10248-3 0 9996 2 42778 97.2410 338.9314 0013478 92.2733 268.0048 15.24122269240483 Pegasus 1 42784U 17036V 21294.37809785 .00002637 00000-0 10805-3 0 9992 2 42784 97.2360 339.3538 0013041 94.7006 265.5722 15.25064905240544 NUDATSat 1 42787U 17036Y 21294.60511599 .00006129 00000-0 23088-3 0 9991 2 42787 97.2416 342.4284 0011706 80.4983 279.7578 15.27379786240582 SUCHAI 1 1 42788U 17036Z 21294.37270569 .00003466 00000-0 13730-3 0 9999 2 42788 97.2370 340.5124 0012518 91.8484 268.4189 15.25994360240681 SKCUBE 1 42789U 17036AA 21294.36018084 .00003283 00000-0 13146-3 0 9999 2 42789 97.2365 340.1476 0012475 92.5505 267.7162 15.25669622240588 VZLUSAT 1 1 42790U 17036AB 21294.27417704 .00004660 00000-0 17649-3 0 9995 2 42790 97.2397 342.0922 0011702 88.3530 271.9050 15.27329142240681 VENTA 1 1 42791U 17036AC 21294.08503123 .00003274 00000-0 13153-3 0 9992 2 42791 97.2363 339.8773 0012167 93.8523 266.4107 15.25560400240530 Robusta 1B 1 42792U 17036AD 21294.11128655 .00003644 00000-0 14443-3 0 9994 2 42792 97.2367 340.3387 0012018 93.1675 267.0939 15.25948624240582 D-SAT 1 42794U 17036AF 21294.47242655 .00000594 00000-0 55870-4 0 9993 2 42794 97.4580 307.6566 0125627 164.0437 196.4797 14.91726782235844 TechnoSat 1 42829U 17042E 21294.39379098 .00000292 00000-0 34417-4 0 9991 2 42829 97.4486 157.1166 0015715 86.8149 273.4868 14.91372443232459 QIKCOM-1 1 42983U 98067NF 21294.63556835 .00014700 00000-0 12443-3 0 9994 2 42983 51.6358 337.0004 0003455 85.8939 274.2453 15.69974204227209 AO-91 1 43017U 17073E 21294.51905618 .00001247 00000-0 10150-3 0 9990 2 43017 97.6932 193.4368 0252436 248.8586 108.5479 14.79866908211769 EcAMSat 1 43019U 98067NG 21294.41712411 .00111612 16010-4 30014-3 0 9991 2 43019 51.6359 287.3348 0005341 70.6783 289.4802 15.94218325310161 PICSAT 1 43132U 18004X 21294.46985051 .00003740 00000-0 14558-3 0 9992 2 43132 97.3996 7.8631 0010237 120.2462 239.9791 15.26580238209903 AO-92 1 43137U 18004AC 21294.46972025 .00002840 00000-0 11365-3 0 9997 2 43137 97.3967 7.1819 0010045 122.0734 238.1481 15.25851722209877 TianYi 2 1 43155U 18008A 21294.75599905 .00002021 00000-0 11829-3 0 9991 2 43155 97.3886 355.8632 0015516 250.2517 258.4574 15.12850568207165 Zhou Enlai 1 43156U 18008B 21294.72374809 .00002748 00000-0 16126-3 0 9994 2 43156 97.3938 355.6721 0012682 250.5403 265.6204 15.12491676207092 TianYi 6 1 43158U 18008D 21294.57939756 .00002344 00000-0 14055-3 0 9998 2 43158 97.3880 353.9204 0012012 251.4673 243.3425 15.11860959206992 S-Net D 1 43186U 18014G 21294.47705255 .00000779 00000-0 72334-4 0 9995 2 43186 97.6665 199.7312 0011421 26.8741 333.3070 14.97180517203155 S-Net B 1 43187U 18014H 21294.54385384 .00000786 00000-0 72908-4 0 9996 2 43187 97.6661 199.7585 0011419 26.6493 333.5314 14.97180020203166 S-Net A 1 43188U 18014J 21294.54400035 .00000789 00000-0 73183-4 0 9997 2 43188 97.6666 199.8092 0011399 26.7016 333.4790 14.97178974203167 S-Net C 1 43189U 18014K 21294.47766966 .00000807 00000-0 74726-4 0 9993 2 43189 97.6661 199.6850 0011412 26.8942 333.2869 14.97178532201701 FMN 1 1 43192U 18015A 21294.75477125 .00008499 00000-0 30009-3 0 9995 2 43192 97.5049 70.9771 0014531 152.7700 315.0625 15.29377506206883 Shaonian Xing 1 43199U 18015H 21294.77410318 .00005796 00000-0 21126-3 0 9992 2 43199 97.4837 67.6578 0015967 161.5787 334.5935 15.28458361206933 SurfSat 1 43614U 18070B 21294.50135709 .00007558 00000-0 16687-3 0 9998 2 43614 93.0311 358.5853 0011581 224.9762 135.0558 15.43812435174108 CP-7 DAVE 1 43615U 18070C 21294.41515430 .00006902 00000-0 15430-3 0 9999 2 43615 93.0315 358.4876 0011731 225.9444 134.0848 15.43447229174074 ELFIN-B 1 43616U 18070D 21294.42336272 .00012717 00000-0 24816-3 0 9995 2 43616 93.0265 358.8636 0011434 219.7265 140.3157 15.47406989174232 ELFIN-A 1 43617U 18070E 21294.46799778 .00013303 00000-0 25368-3 0 9999 2 43617 93.0321 359.8575 0011011 215.7501 144.3022 15.48074670174266 CubeBel-1 1 43666U 18083E 21294.74690207 .00002904 00000-0 13805-3 0 9993 2 43666 97.4474 321.5070 0016031 88.6034 22.7144 15.19886858165191 Changshagaoxin 1 43669U 18083H 21294.77418563 .00002711 00000-0 13398-3 0 9995 2 43669 97.4391 318.2237 0012184 85.4550 25.3968 15.18633921165051 Ten-Koh 1 43677U 18084G 21294.59726634 .00000288 00000-0 35338-4 0 9992 2 43677 97.9363 58.0765 0015486 343.9220 16.1504 14.90556741162091 PO-101 1 43678U 18084H 21294.89049713 -.00000112 00000-0 -53087-5 0 9992 2 43678 97.9398 60.9435 0009854 2.5390 357.5879 14.91808868162283 IRVINE 01 1 43693U 18088D 21294.50544894 .00007439 00000-0 27850-3 0 9995 2 43693 85.0291 111.0987 0013695 280.2857 79.6844 15.27021511163660 QO-100 1 43700U 18090A 21294.74617199 .00000146 00000-0 00000 0 0 9994 2 43700 0.0144 249.4515 0002190 336.5714 98.8293 1.00275802 10876 Reaktor Hello World 1 43743U 18096AA 21294.22412862 .00003645 00000-0 12954-3 0 9992 2 43743 97.3775 10.7662 0016737 185.2023 174.9047 15.29527848161357 MinXSS-2 1 43758U 18099A 21294.43823844 .00000338 00000-0 34959-4 0 9996 2 43758 97.6555 2.9531 0015163 352.2480 7.8504 14.96247289157353 AO-95 1 43770U 18099N 21294.44796852 .00000509 00000-0 51077-4 0 9999 2 43770 97.6528 1.7813 0014311 2.1039 358.0239 14.95484083157284 RANGE-B 1 43772U 18099Q 21294.44929333 .00000719 00000-0 69395-4 0 9998 2 43772 97.6621 2.9816 0013592 348.7463 11.3452 14.95833404157298 RANGE-A 1 43773U 18099R 21294.46414295 .00000867 00000-0 83617-4 0 9994 2 43773 97.6461 0.9891 0012969 349.9833 10.1128 14.95334353157277 MOVE-II 1 43780U 18099Y 21294.15431193 .00001372 00000-0 12667-3 0 9992 2 43780 97.6558 2.1854 0013151 0.8717 359.2525 14.96190055157260 SNUSat 2 1 43782U 18099AA 21294.46082233 .00000851 00000-0 81464-4 0 9998 2 43782 97.6528 2.1789 0012128 348.6375 11.4571 14.95713620157303 SnugLite 1 43784U 18099AC 21294.45810590 .00000829 00000-0 79135-4 0 9991 2 43784 97.6491 1.8704 0014602 355.3025 4.8057 14.95852361157326 ITASat 1 1 43786U 18099AE 21294.20945220 .00001078 00000-0 10162-3 0 9996 2 43786 97.6554 2.3138 0014772 356.2754 3.8355 14.95759064157283 EAGLET 1 1 43790U 18099AJ 21294.41557665 .00000889 00000-0 84063-4 0 9997 2 43790 97.6545 2.9768 0013281 0.2107 359.9118 14.96092895157044 ESEO 1 43792U 18099AL 21294.15427085 .00000413 00000-0 42065-4 0 9991 2 43792 97.6508 2.2083 0013133 358.3694 1.7482 14.95814725157052 CSIM 1 43793U 18099AM 21294.43479790 .00000705 00000-0 66403-4 0 9999 2 43793 97.6551 3.1061 0012498 352.0232 8.0789 14.96857618157115 Astrocast 0.1 1 43798U 18099AS 21294.74647447 .00001726 00000-0 15739-3 0 9993 2 43798 97.6551 3.5523 0011456 338.5199 21.5541 14.96360797157406 JO-97 1 43803U 18099AX 21294.15136843 .00001040 00000-0 97518-4 0 9993 2 43803 97.6517 1.9969 0014753 356.4643 3.6472 14.96040938157289 Suomi 100 1 43804U 18099AY 21294.15959865 .00000554 00000-0 54421-4 0 9996 2 43804 97.6514 1.9607 0014924 356.1800 3.9305 14.96003371157297 Al Farabi 2 1 43805U 18099AZ 21294.87629489 .00001362 00000-0 12550-3 0 9996 2 43805 97.6531 2.9505 0014792 353.2011 6.9004 14.96266904157416 CHOMPTT 1 43855U 18104G 21294.57179278 .00003128 00000-0 12505-3 0 9993 2 43855 85.0410 209.8893 0018772 46.7443 313.5363 15.24507309158304 ISAT 1 43879U 18111D 21294.88414684 .00001069 00000-0 98217-4 0 9991 2 43879 97.6728 199.8446 0013887 44.0126 316.2202 14.96822344151968 UWE-4 1 43880U 18111E 21294.51833745 .00000362 00000-0 36386-4 0 9990 2 43880 97.6767 200.0385 0013411 45.5974 314.6343 14.97052237153945 Sparrow 1 43881U 18111F 21294.55091436 .00001394 00000-0 12558-3 0 9998 2 43881 97.6774 200.2279 0013446 44.7248 315.5056 14.97114471153952 Lume 1 1 43908U 18111AJ 21294.51672566 .00002968 00000-0 11471-3 0 9994 2 43908 97.2160 185.1172 0019281 199.3484 160.7025 15.26835937156906 FO-98 1 43933U 19003B 21294.36709386 .00021142 00000-0 69888-3 0 9997 2 43933 97.1713 331.3020 0012218 307.2451 52.7676 15.31311117153343 FO-99 1 43937U 19003F 21294.34884817 .00003062 00000-0 11949-3 0 9998 2 43937 97.1634 332.4472 0020905 286.9624 72.9324 15.26458809153460 MYSat 1 1 44045U 18092F 21294.04521574 .00007656 00000-0 18726-3 0 9994 2 44045 51.6364 172.6085 0008750 303.1660 56.8485 15.41774905150827 AstroCast 0.2 1 44083U 19018F 21294.60132726 .00003216 00000-0 13885-3 0 9993 2 44083 97.3588 353.2635 0011156 245.6998 114.3075 15.23173210142097 AISTechSat 3 1 44103U 19018AB 21294.78388396 .00002780 00000-0 11562-3 0 9996 2 44103 97.3463 353.8792 0011327 256.8266 236.0667 15.24551874142258 AISat 1 1 44104U 19018AC 21294.18253147 .00002378 00000-0 74856-4 0 9995 2 44104 97.4172 11.7635 0054264 267.5524 91.9504 15.32571362142921 Prox-1 1 44339U 19036A 21294.26565387 .00001459 00000-0 29121-3 0 9999 2 44339 23.9996 261.6928 0011729 117.4643 242.7042 14.53835315123491 Oculus-ASR 1 44348U 19036K 21294.50686022 .00029425 00000-0 38045-3 0 9994 2 44348 28.5126 12.7019 0313367 195.1393 163.9636 15.16460198128032 Armadillo 1 44352U 19036P 21294.47174479 .00045516 00000-0 52227-3 0 9990 2 44352 28.5297 340.7115 0272205 244.9979 112.2117 15.26990561128309 NO-104 1 44354U 19036R 21294.46763494 .00029637 00000-0 37230-3 0 9995 2 44354 28.5295 4.2443 0307578 206.5165 151.9392 15.18196578128119 NO-103 1 44355U 19036S 21294.38044618 .00077988 -50815-5 70917-3 0 9993 2 44355 28.5262 295.8113 0222388 317.8091 40.5587 15.40867270128797 CP9 1 44360U 19036X 21294.39364556 .00949528 43796-3 12145-2 0 9999 2 44360 28.4882 184.2079 0048266 146.0607 214.3110 16.03678511129756 Move-IIb 1 44398U 19038N 21294.61620254 .00003798 00000-0 20952-3 0 9991 2 44398 97.5968 258.2041 0022305 232.3442 127.5767 15.14377597126854 SONATE 1 44400U 19038Q 21294.59480129 .00001405 00000-0 83293-4 0 9998 2 44400 97.6046 257.9356 0023309 233.7862 126.1211 15.12855625126802 BeeSat 9 1 44412U 19038AC 21294.41793729 .00002050 00000-0 11687-3 0 9999 2 44412 97.6039 258.1424 0020302 237.9075 122.0186 15.13782244126508 JAISAT-1 1 44419U 19038F 21294.47953709 .00002119 00000-0 11909-3 0 9991 2 44419 97.6044 258.8514 0019238 235.1698 124.7725 15.14267360126860 LightSail-2 1 44420U 19036AC 21294.52216065 .00011439 00000-0 22195-2 0 9997 2 44420 24.0037 230.9665 0021396 154.9099 205.2437 14.61271854121940 Taurus 1 1 44530U 19059C 21294.65099748 .00000940 00000-0 27479-3 0 9991 2 44530 98.5509 26.0741 0015165 121.0972 239.1710 14.46243925111325 Duchifat 3 1 44854U 19089C 21294.70535838 .00001147 00000-0 97508-4 0 9995 2 44854 36.9655 73.9018 0007131 71.2132 288.9392 14.99710613102068 OPS-SAT 1 44878U 19092F 21294.53058341 .00002246 00000-0 11691-3 0 9994 2 44878 97.4768 116.2521 0015137 91.6676 268.6291 15.16965323101944 TO-108 1 44881U 19093C 21294.83749768 .00000163 00000-0 27512-4 0 9998 2 44881 97.9158 12.2373 0013729 240.3744 119.6089 14.81495123 99448 FloripaSat 1 1 44885U 19093G 21294.64833249 .00000617 00000-0 83520-4 0 9994 2 44885 97.9182 12.8324 0013354 248.3891 111.5907 14.82421997 99467 RS-44 1 44909U 19096E 21294.50091848 .00000021 00000-0 33973-4 0 9996 2 44909 82.5264 29.0502 0217951 158.1945 202.8611 12.79711234 84943 HO-107 1 45119U 19071J 21294.02764834 .00004885 00000-0 14337-3 0 9996 2 45119 51.6396 147.5500 0010827 28.2237 331.9331 15.36980939 96478 Phoenix 1 45258U 98067RB 21294.52589117 .00019379 00000-0 23892-3 0 9996 2 45258 51.6389 56.6738 0005512 0.7904 359.3097 15.60194140 94860 AztechSat-1 1 45261U 98067RE 21294.56633531 .00130228 00000-0 65339-3 0 9993 2 45261 51.6319 33.5497 0007796 359.5383 0.5610 15.80796671 95197 QARMAN 1 45263U 98067RG 21294.56752392 .00057467 00000-0 45938-3 0 9998 2 45263 51.6367 44.1707 0006200 3.4307 356.6732 15.70503475 95090 Quetzal 1 1 45598U 98067RL 21294.61992282 .00048590 00000-0 44865-3 0 9994 2 45598 51.6383 50.5743 0001377 354.9646 5.1336 15.67079756 84281 BY70-2 1 45857U 20042B 21294.83778259 .00001889 00000-0 27224-3 0 9990 2 45857 97.9762 9.2536 0012313 161.6385 198.5284 14.77425606 70204 UPMSat 2 1 46276U 20061E 21294.43971504 .00001205 00000-0 64817-4 0 9993 2 46276 97.4215 5.6266 0000383 34.9384 325.1874 15.16714960 62632 AmicalSat 1 46287U 20061R 21294.16543689 .00001555 00000-0 97439-4 0 9998 2 46287 97.4768 4.6243 0003607 48.4287 311.7252 15.10790428 62329 SALSAT 1 46495U 20068K 21294.57722119 .00001619 00000-0 12265-3 0 9992 2 46495 97.6986 231.3793 0017361 9.6082 350.5471 15.03607003 58289 BY70-3 1 46839U 20079N 21294.85601644 .00006358 00000-0 19038-3 0 9996 2 46839 97.2296 6.2099 0008613 110.4771 1.3632 15.34830552 53584 SPOC 1 46921U 98067RR 21294.42146094 .00017447 00000-0 23636-3 0 9996 2 46921 51.6410 66.5505 0001456 208.3279 151.7635 15.57777213 54478 Bobcat-1 1 46922U 98067RS 21294.36661213 .00032172 00000-0 37359-3 0 9994 2 46922 51.6419 63.2152 0001549 253.0716 107.0108 15.61457184 54472 Neutron-1 1 46923U 98067RT 21294.57575961 .00019745 00000-0 26784-3 0 9993 2 46923 51.6412 66.0773 0001573 226.4630 133.6232 15.57647923 54528 CAPE 3 1 47309U 21002A 21294.39823618 .00002249 00000-0 10934-3 0 9993 2 47309 60.6840 180.9202 0043940 115.2401 245.3249 15.21355461 42047 AO-109 1 47311U 21002C 21294.36858695 .00002572 00000-0 12081-3 0 9990 2 47311 60.6850 179.6705 0040101 111.4691 249.0680 15.22195373 42033 MiTEE 1 1 47314U 21002F 21294.36929195 .00004290 00000-0 18266-3 0 9997 2 47314 60.6839 177.3335 0041126 104.3528 256.2130 15.24102833 42092 ExoCube 2 1 47319U 21002L 21294.37009163 .00002593 00000-0 12292-3 0 9994 2 47319 60.6836 180.2112 0040921 113.4052 247.1346 15.21815115 41992 UVSQ-SAT 1 47438U 21006AB 21294.47784236 .00001716 00000-0 99313-4 0 9998 2 47438 97.4734 353.3745 0013253 29.6005 330.5974 15.13502533 41114 YUSAT 1 1 47439U 21006AC 21294.47869481 .00001800 00000-0 10385-3 0 9990 2 47439 97.4739 353.3825 0013079 30.1937 330.0046 15.13554034 41114 SOMP 2b 1 47445U 21006AJ 21294.44002560 .00001720 00000-0 10005-3 0 9991 2 47445 97.4706 353.1726 0013010 33.6400 326.5655 15.13324644 41108 IDEASSat 1 47458U 21006AX 21294.13369198 .00001715 00000-0 10018-3 0 9992 2 47458 97.4798 353.1414 0012093 33.2497 326.9492 15.13184528 41051 RSP-01 1 47925U 98067SB 21294.55249383 .00021291 00000-0 31572-3 0 9990 2 47925 51.6416 72.6575 0001292 155.9129 204.1923 15.55176462 34370 TAUSAT-1 1 47926U 98067SC 21294.51687105 .00027179 00000-0 38003-3 0 9992 2 47926 51.6405 71.6597 0001884 156.9601 203.1475 15.56622871 34377 Tsuru 1 47927U 98067SD 21294.38869155 .00017813 00000-0 27052-3 0 9991 2 47927 51.6420 73.8130 0001449 151.0015 209.1057 15.54653337 34342 STARS-EC 1 47928U 98067SE 21294.51660350 .00028483 00000-0 40116-3 0 9994 2 47928 51.6413 72.4080 0005082 231.6139 128.4396 15.56391064 34351 Maya-2 1 47929U 98067SF 21294.38466209 .00017424 00000-0 26462-3 0 9998 2 47929 51.6416 73.7847 0001524 145.6844 214.4246 15.54669039 34307 OPUSAT-II 1 47930U 98067SG 21294.39671776 .00029296 00000-0 40254-3 0 9993 2 47930 51.6407 72.3687 0000801 162.4893 197.6126 15.57052687 34367 GuaraniSat-1 1 47931U 98067SH 21294.38236567 .00017236 00000-0 26156-3 0 9994 2 47931 51.6422 73.7730 0001539 143.9700 216.1395 15.54699784 34344 CubeSX-Sirius-HSE 1 47951U 21022V 21294.83782164 .00001280 00000-0 91935-4 0 9992 2 47951 97.5459 194.3847 0020176 239.2884 120.6345 15.05921760 32074 CubeSX-HSE 1 47952U 21022W 21294.83227091 .00001076 00000-0 77849-4 0 9997 2 47952 97.5450 194.3874 0019975 238.9516 120.9728 15.05958616 32077 KSU-Cubesat 1 47954U 21022Y 21294.48838913 .00001356 00000-0 96760-4 0 9995 2 47954 97.5456 194.0863 0020041 239.8354 120.0887 15.06054982 31740 GRBAlpha 1 47959U 21022AD 21294.83244536 .00001149 00000-0 82826-4 0 9999 2 47959 97.5454 194.4029 0019862 239.5616 120.3631 15.05962901 30891 Orbicraft-Zorkiy 1 47960U 21022AE 21294.82277779 .00000840 00000-0 61636-4 0 9998 2 47960 97.5461 194.4481 0019741 239.5300 120.3980 15.06032525 31584 STECCO 1 47962U 21022AG 21294.75658948 .00002110 00000-0 14403-3 0 9994 2 47962 97.5426 194.6247 0015341 234.9411 210.2810 15.07188421 30895 DO-111 1 47963U 21022AH 21294.53712587 .00004502 00000-0 29526-3 0 9990 2 47963 97.5460 194.6083 0017672 231.9517 128.0117 15.08057190 30890 MO-110 1 47964U 21022AJ 21294.30497339 .00001402 00000-0 96308-4 0 9990 2 47964 97.5449 194.2895 0018086 232.7336 127.2243 15.07472166 30831 FEES 1 48082U 21022AL 21294.29980292 .00002192 00000-0 14973-3 0 9999 2 48082 97.5455 194.1738 0014325 229.5825 130.4153 15.07132218 30538 RamSat 1 48850U 98067SL 21294.40531229 .00012812 00000-0 21690-3 0 9994 2 48850 51.6416 76.8919 0004079 247.7998 112.2559 15.51920258 20056 MO-112 1 48868U 98067SP 21294.67504116 .00029122 00000-0 44552-3 0 9991 2 48868 51.6407 74.9461 0003273 259.0646 100.9976 15.54126539 18885 TUBIN 1 48900U 21059X 21294.82302977 .00001757 00000-0 10491-3 0 9992 2 48900 97.5245 61.8679 0009759 198.0918 265.4994 15.12385984 17832 IT-SPINS 1 49017U 21013G 21294.51191505 .00001974 00000-0 96269-4 0 9990 2 49017 51.6200 99.5344 0006947 267.5140 92.5042 15.23214550 17336 CUTE 1 49263U 21088D 21294.59449991 .00001622 00000-0 12921-3 0 9990 2 49263 97.6234 2.1937 0017850 163.8947 196.2868 15.01639961 3563 OBJECT SR 1 49272U 98067SR 21294.54392448 .00013880 00000-0 24875-3 0 9990 2 49272 51.6418 77.8087 0005156 149.8320 210.2967 15.50220813 2446 Maya-3 1 49273U 98067SS 21294.54383768 .00016517 00000-0 29384-3 0 9996 2 49273 51.6418 77.8080 0004924 148.3781 211.7504 15.50275894 2449 Maya-4 1 49274U 98067ST 21294.41526400 .00016242 00000-0 28953-3 0 9991 2 49274 51.6417 78.4493 0004865 146.5202 213.6095 15.50232992 2422 CUAVA-1 1 49275U 98067SU 21294.82140586 .00018318 00000-0 32385-3 0 9994 2 49275 51.6432 76.4168 0005253 158.8301 316.2188 15.50371235 2433 /EX